Theta_e
303 300 299 300 300 301 301 302 303 302 299 299 300 298 300 300 297 297 296 295 296 296 297 299 300 303 303 303 303 303 302 300 299 298 297 297 296 295 295 295 294 293 292 290
301 300 301 301 301 302 302 301 300 300 299 298 296 297 298 296 296 296 297 295 294 294 296 297 299 300 302 303 302 302 301 300 299 298 298 296 295 295 295 295 294 293 291 289
302 301 301 302 300 302 300 301 300 300 298 296 293 297 297 296 297 298 298 295 294 294 296 296 297 299 300 301 302 301 300 299 298 298 296 295 295 295 295 295 294 292 289 289
300 300 301 301 300 298 302 298 299 299 294 295 293 298 297 296 296 297 297 295 295 296 296 295 295 297 299 300 300 300 299 299 298 297 296 295 295 294 295 294 292 291 288 289
300 300 300 300 299 298 300 297 297 294 288 290 292 290 296 296 299 298 296 296 296 296 295 295 295 297 298 299 299 299 298 297 297 297 296 296 295 295 294 293 291 288 288 289
299 297 297 299 297 297 296 295 293 290 285 292 286 290 299 300 300 296 296 295 295 295 295 295 296 296 297 298 298 297 297 297 296 296 296 296 295 294 294 292 289 288 289 289
296 299 297 296 299 298 294 289 291 295 293 298 279 291 299 299 297 296 294 293 293 293 293 292 293 295 296 297 297 296 295 295 295 294 295 295 295 294 292 290 287 288 288 289
291 293 292 296 297 297 296 289 293 292 294 294 280 292 299 296 294 292 292 291 293 293 292 291 293 295 296 296 296 295 295 295 294 293 293 294 293 292 291 287 288 288 288 287
292 294 295 296 295 293 293 289 290 284 275 286 289 292 295 297 292 293 293 292 292 292 292 291 292 294 295 295 295 294 294 294 294 292 292 292 292 291 288 288 288 288 287 286
294 291 289 295 294 292 291 290 291 286 291 290 290 282 296 294 293 292 292 290 289 289 289 289 291 293 294 294 294 294 294 294 294 292 291 291 291 288 287 288 288 287 286 286
289 288 290 294 288 289 290 288 287 288 290 291 289 295 288 288 285 287 288 287 283 284 286 287 290 293 292 293 294 295 294 294 293 291 290 290 288 287 287 287 287 287 286 285
295 293 290 292 293 292 292 289 292 293 289 286 290 294 288 285 281 277 286 286 285 281 284 285 290 290 291 293 293 295 294 294 293 290 289 289 287 287 287 287 287 287 286 285
296 287 284 290 289 291 291 292 290 287 291 289 292 295 286 280 281 282 283 289 293 294 290 287 287 289 290 291 292 294 295 293 293 290 289 288 286 287 287 287 287 286 285 285
297 295 287 289 287 286 291 293 293 290 286 293 295 297 295 295 292 290 294 290 292 291 291 292 291 290 289 290 290 291 293 294 293 290 289 287 286 286 287 287 287 286 285 285
295 289 293 291 287 285 291 290 290 292 291 295 297 294 291 295 295 294 291 289 291 291 291 291 291 292 292 290 290 291 291 291 292 291 288 287 286 286 287 287 287 286 285 285
294 287 287 289 295 296 297 296 293 293 295 294 295 295 293 289 284 287 290 290 290 289 288 290 290 291 291 292 291 291 292 292 291 290 288 288 286 286 286 287 287 286 285 284
293 287 287 286 286 286 287 289 294 292 284 291 290 289 282 284 286 286 290 289 286 285 286 288 288 290 291 292 292 290 290 290 287 287 287 286 285 285 286 287 286 285 284 284
294 290 288 288 281 286 288 290 289 287 290 285 287 281 282 284 283 285 287 283 285 288 288 289 289 289 290 291 290 289 290 288 287 287 286 286 285 284 285 285 285 283 283 283
294 296 295 286 278 287 291 291 292 291 290 290 289 285 285 285 285 286 287 286 287 288 288 289 289 290 290 289 289 286 286 285 286 286 286 286 285 284 284 285 284 283 283 283
289 294 293 281 285 284 288 289 288 289 290 288 286 285 285 285 286 287 286 287 287 288 288 289 289 290 289 290 292 284 282 283 284 286 287 287 285 283 284 285 284 283 282 283
292 292 294 293 292 288 289 286 286 285 289 286 285 285 285 285 286 286 286 286 286 287 287 288 289 288 289 290 293 286 283 282 285 285 286 286 284 283 284 285 284 284 282 282
284 280 281 283 286 292 286 286 285 286 286 285 285 285 285 286 286 286 286 286 286 286 286 288 288 288 289 289 291 290 286 286 286 285 285 285 283 282 283 284 284 283 282 281
286 286 284 285 286 286 286 286 285 286 285 285 285 285 285 286 286 286 286 286 286 286 286 286 287 287 288 289 290 289 291 290 287 286 284 284 283 282 282 283 283 282 281 280
284 284 286 284 284 286 286 286 286 285 285 285 285 286 286 286 286 286 286 286 286 286 286 286 286 286 287 288 290 291 292 293 286 285 284 284 283 281 281 282 283 283 281 282
284 281 280 285 286 284 284 283 284 285 285 285 285 285 285 286 287 286 286 285 285 286 285 285 285 285 287 288 290 290 291 292 287 285 284 283 283 282 281 281 283 283 284 284
285 286 287 288 287 286 285 285 284 284 284 284 284 284 285 285 286 285 284 283 283 283 284 285 285 284 285 286 288 290 291 290 288 284 284 284 283 282 281 281 282 283 284 283
Wind_Speed
4 6 2 1 1 2 2 1 2 2 4 4 3 9 19 7 7 9 8 8 9 10 12 16 19 25 23 21 21 21 23 21 18 15 13 13 13 11 10 10 12 14 15 15
6 3 3 1 4 3 5 2 3 4 4 3 6 17 18 7 5 5 5 7 8 5 6 9 15 21 23 22 21 20 21 21 18 17 14 11 10 9 10 12 13 14 14 14
5 1 4 3 5 5 3 3 3 3 7 3 8 8 6 3 4 3 2 4 5 6 6 4 11 17 20 20 21 19 18 17 16 15 15 14 13 13 13 13 14 12 13 14
5 4 3 4 4 3 2 3 2 3 5 2 5 4 8 5 9 5 6 4 5 1 2 3 8 14 18 18 16 15 14 15 15 16 17 17 17 16 15 14 14 14 14 15
3 4 6 6 2 2 1 3 2 3 4 3 7 4 8 4 6 5 6 5 4 2 1 4 7 12 13 14 13 12 13 14 14 16 18 19 19 18 16 15 16 15 15 16
2 1 4 1 2 3 2 2 5 3 3 3 3 3 6 3 3 5 4 5 5 4 2 3 6 9 11 12 14 13 12 13 13 15 17 19 18 17 16 16 16 16 17 18
5 3 3 4 1 2 6 6 4 6 4 4 1 1 10 6 6 4 7 8 7 5 5 5 7 11 15 18 16 13 12 14 14 15 15 16 17 16 16 16 16 17 18 20
4 6 4 6 3 2 4 5 5 4 2 5 2 5 5 4 6 6 5 6 6 6 5 6 10 15 18 15 15 15 16 18 17 16 17 18 17 16 15 15 15 16 18 20
3 4 1 4 3 3 2 3 2 7 2 3 3 7 11 3 6 8 6 7 7 7 7 8 13 16 18 19 19 18 19 20 19 18 16 17 17 16 15 14 14 16 16 16
3 3 1 3 2 5 4 2 4 3 2 4 5 5 5 7 8 10 10 9 9 8 9 9 15 20 22 21 20 19 18 20 19 19 18 18 17 16 15 14 14 14 13 13
4 4 5 1 2 6 2 2 4 3 3 4 2 6 7 7 3 6 9 8 6 8 8 7 18 27 26 23 21 19 20 19 21 22 19 18 17 15 14 14 13 12 11 10
0 4 2 7 1 2 3 6 4 4 5 2 2 8 2 6 5 4 9 7 6 5 8 8 21 27 31 31 28 23 23 22 24 23 21 19 17 17 16 14 12 10 10 9
5 2 3 8 4 4 3 4 3 3 2 6 3 6 2 3 4 5 6 11 13 16 13 9 14 20 26 32 37 34 26 24 25 24 24 22 20 19 17 14 11 9 9 9
3 4 7 7 7 4 2 4 5 5 3 3 14 25 10 17 13 12 16 8 11 14 15 15 14 20 25 31 34 37 42 32 27 28 28 26 23 20 17 14 11 9 7 9
3 5 6 7 6 4 8 8 7 11 8 10 30 18 9 17 17 16 11 11 15 14 14 16 16 21 29 28 32 36 37 38 36 33 33 31 24 20 17 15 12 9 8 8
0 3 2 5 9 14 19 14 17 20 18 17 25 29 16 8 5 9 15 16 13 11 11 15 14 23 27 31 31 32 37 36 33 37 37 32 26 22 20 17 14 11 8 8
4 3 3 6 3 5 7 13 18 7 4 9 8 7 3 6 10 8 16 15 9 8 8 12 13 20 28 34 33 34 38 32 26 34 35 29 27 23 21 19 14 11 9 9
4 4 2 4 4 2 7 2 4 6 5 7 8 4 4 7 8 9 9 6 9 14 16 16 22 25 31 36 36 39 37 27 25 30 31 30 28 24 22 20 17 13 11 11
9 6 3 2 3 8 8 1 3 2 5 5 1 7 11 10 15 10 7 7 12 14 19 23 27 29 32 35 39 36 33 25 27 31 33 32 30 26 25 23 19 15 13 13
2 9 7 1 3 6 4 3 5 3 7 6 16 20 19 18 14 16 12 18 22 32 32 29 30 30 28 36 34 29 23 22 29 30 32 31 30 28 28 25 20 15 14 13
3 3 14 10 7 8 3 5 2 3 3 15 13 16 17 16 14 25 23 23 28 33 34 38 27 24 30 33 27 26 23 26 27 24 23 25 27 28 27 23 19 16 14 12
7 6 4 1 2 14 5 3 5 5 9 13 15 17 19 20 23 23 25 23 26 30 36 32 25 29 30 30 28 26 27 29 24 19 20 24 26 27 26 25 19 16 14 13
3 6 4 9 7 2 3 6 4 14 15 14 15 17 19 21 24 25 24 26 26 32 32 34 31 34 31 28 23 24 35 27 24 21 24 23 23 26 25 25 24 19 15 15
4 4 6 2 3 9 7 12 11 12 12 15 17 19 21 21 24 22 22 22 21 34 32 33 30 27 29 26 22 24 32 28 24 25 25 22 23 25 25 24 24 25 22 19
5 5 4 13 12 9 6 7 11 14 14 16 18 19 21 20 23 23 21 24 29 31 36 33 30 27 31 29 25 26 30 23 27 27 26 23 25 25 26 26 27 28 26 22
6 7 7 15 13 10 14 13 16 16 19 19 18 21 22 20 20 20 21 30 31 32 36 32 32 29 31 30 30 26 27 21 22 28 27 26 26 26 27 26 25 24 22 18
Wind_Direction
9 65 72 25 40 124 120 72 307 296 12 337 296 288 287 294 254 267 271 270 264 250 249 242 236 226 222 220 218 218 209 212 218 223 238 253 259 268 276 289 302 309 311 313
24 73 332 345 26 74 59 75 317 298 17 357 357 296 283 292 252 224 274 291 280 263 217 196 202 205 207 212 208 205 209 215 222 231 245 254 266 272 280 292 302 306 306 309
108 50 358 65 32 37 49 95 10 261 327 70 324 299 323 313 315 269 262 302 305 257 214 179 173 183 191 196 199 204 209 215 227 239 246 254 261 269 277 291 299 297 302 307
75 341 56 61 68 40 32 357 34 13 39 278 13 277 299 318 307 285 286 324 331 330 157 150 160 173 180 186 191 198 209 222 235 244 247 249 253 261 276 292 295 299 302 304
269 18 31 54 7 26 151 31 58 83 91 51 350 68 272 336 322 314 302 289 319 356 122 174 180 183 179 180 188 200 217 232 244 249 251 250 252 261 273 285 291 296 301 305
91 42 53 63 55 50 69 72 42 59 94 30 255 106 282 259 239 320 338 287 278 272 250 203 185 186 190 192 198 209 228 245 256 257 252 248 247 254 269 280 289 297 302 307
358 19 357 26 35 19 53 48 342 359 9 224 259 22 248 288 284 275 290 308 266 246 218 211 204 201 200 202 206 215 235 252 261 257 247 242 245 254 266 279 287 294 302 307
100 333 11 346 63 179 42 128 144 218 286 279 2 241 254 242 297 281 283 301 282 258 262 252 231 218 217 217 222 232 249 260 261 252 245 242 242 250 263 272 280 290 298 303
102 299 340 42 24 69 269 41 169 99 68 32 273 293 295 329 321 15 318 317 290 268 255 248 249 243 240 236 241 254 260 256 256 250 243 236 239 248 256 265 275 285 294 300
186 8 277 288 135 34 121 149 36 8 9 306 291 280 239 320 321 343 359 339 325 324 323 313 292 273 260 257 264 264 260 258 257 247 236 235 239 244 250 259 270 281 293 297
131 91 283 31 185 181 33 13 42 123 135 187 274 266 216 224 236 308 318 329 320 318 305 287 283 284 281 277 273 276 270 263 252 247 232 230 233 240 247 255 266 280 293 299
72 131 227 226 125 171 164 190 154 129 269 227 179 270 299 222 234 215 295 287 275 254 276 275 288 291 281 268 275 283 280 265 254 244 234 228 228 235 243 252 266 276 287 290
173 334 1 340 9 355 217 204 140 115 91 204 168 256 257 233 253 272 280 319 328 322 302 286 290 282 282 277 266 264 275 267 254 245 234 227 226 231 238 245 257 268 284 292
148 163 173 202 207 141 188 198 205 145 143 245 236 276 292 291 305 319 317 321 317 298 304 311 311 301 289 285 280 272 259 259 253 238 231 227 223 227 232 240 251 267 287 296
128 205 207 244 227 191 235 215 210 208 214 221 269 259 296 294 306 318 321 316 312 319 321 320 317 312 308 295 288 284 275 266 250 235 227 226 222 224 229 237 245 257 273 288
135 265 86 281 245 246 262 254 231 238 245 253 262 277 284 314 341 343 330 322 330 328 323 325 324 326 320 311 292 286 287 277 260 233 224 221 218 220 227 233 238 244 258 280
164 133 41 269 325 327 301 233 230 219 191 214 240 250 332 337 336 323 316 312 290 287 286 304 311 314 315 317 303 286 293 290 253 230 221 215 215 217 224 231 231 234 248 262
162 125 164 266 13 298 244 209 182 193 239 227 285 331 278 262 254 253 266 227 261 312 308 305 304 308 313 319 311 298 294 270 232 218 218 214 214 217 220 228 231 234 242 253
222 210 261 223 204 298 282 77 110 130 263 97 315 300 311 315 314 315 234 227 289 294 292 290 289 295 306 322 328 306 290 250 225 219 218 215 214 214 215 222 227 236 236 248
179 225 199 92 197 240 241 204 242 219 264 165 337 331 329 334 312 305 301 302 299 298 297 294 289 297 309 322 338 317 278 236 224 221 220 217 215 215 215 222 224 226 229 246
148 179 221 224 241 277 217 269 250 87 318 333 322 308 302 299 284 292 299 297 295 292 292 295 285 285 302 312 329 316 290 256 246 237 230 222 219 219 220 221 225 223 223 241
175 160 195 100 246 261 172 46 114 249 294 308 305 298 298 294 293 290 293 293 296 295 297 287 286 289 287 301 317 303 284 281 272 260 239 222 217 218 219 222 225 219 222 236
273 191 190 190 215 231 212 201 264 329 301 295 291 291 289 294 295 293 292 294 293 289 286 284 281 281 278 287 293 290 293 297 278 256 235 223 218 219 220 219 222 219 222 229
263 201 239 47 273 253 302 318 309 286 273 278 283 291 293 292 294 292 293 291 291 289 286 286 276 263 275 274 272 280 285 294 279 252 236 223 217 217 218 219 221 219 224 230
195 155 224 255 275 287 277 263 266 281 280 283 283 282 283 284 287 289 290 290 287 287 288 283 268 263 263 271 266 272 278 281 267 249 243 224 217 217 216 218 219 222 232 236
199 216 237 263 272 283 286 286 279 288 287 284 286 296 290 283 284 289 289 289 288 288 288 279 268 262 261 270 266 265 270 276 254 246 239 229 218 214 217 217 222 228 237 238